Index of /20260430/WXO-DD/model_rdps/10km/00/084
Name Last modified Size Description
Parent Directory -
20260430T00Z_MSC_RDPS_AbsoluteVorticity_IsbL-0250_RLatLon0.09_PT084H.grib2 2026-04-30 03:04 616K
20260430T00Z_MSC_RDPS_AbsoluteVorticity_IsbL-0500_RLatLon0.09_PT084H.grib2 2026-04-30 03:04 574K
20260430T00Z_MSC_RDPS_AbsoluteVorticity_IsbL-0700_RLatLon0.09_PT084H.grib2 2026-04-30 03:04 618K
20260430T00Z_MSC_RDPS_AbsoluteVorticity_IsbL-0850_RLatLon0.09_PT084H.grib2 2026-04-30 03:04 786K
20260430T00Z_MSC_RDPS_AirTemp_AGL-120m_RLatLon0.09_PT084H.grib2 2026-04-30 03:04 382K
20260430T00Z_MSC_RDPS_AirTemp_AGL-2m_RLatLon0.09_PT084H.grib2 2026-04-30 03:04 630K
20260430T00Z_MSC_RDPS_AirTemp_AGL-40m_RLatLon0.09_PT084H.grib2 2026-04-30 03:04 399K
20260430T00Z_MSC_RDPS_AirTemp_AGL-80m_RLatLon0.09_PT084H.grib2 2026-04-30 03:04 390K
20260430T00Z_MSC_RDPS_AirTemp_IsbL-0001_RLatLon0.09_PT084H.grib2 2026-04-30 03:04 308K
20260430T00Z_MSC_RDPS_AirTemp_IsbL-0005_RLatLon0.09_PT084H.grib2 2026-04-30 03:04 287K
20260430T00Z_MSC_RDPS_AirTemp_IsbL-0010_RLatLon0.09_PT084H.grib2 2026-04-30 03:04 390K
20260430T00Z_MSC_RDPS_AirTemp_IsbL-0020_RLatLon0.09_PT084H.grib2 2026-04-30 03:04 416K
20260430T00Z_MSC_RDPS_AirTemp_IsbL-0030_RLatLon0.09_PT084H.grib2 2026-04-30 03:04 341K
20260430T00Z_MSC_RDPS_AirTemp_IsbL-0050_RLatLon0.09_PT084H.grib2 2026-04-30 03:04 319K
20260430T00Z_MSC_RDPS_AirTemp_IsbL-0100_RLatLon0.09_PT084H.grib2 2026-04-30 03:04 428K
20260430T00Z_MSC_RDPS_AirTemp_IsbL-0150_RLatLon0.09_PT084H.grib2 2026-04-30 03:04 423K
20260430T00Z_MSC_RDPS_AirTemp_IsbL-0175_RLatLon0.09_PT084H.grib2 2026-04-30 03:04 412K
20260430T00Z_MSC_RDPS_AirTemp_IsbL-0200_RLatLon0.09_PT084H.grib2 2026-04-30 03:04 418K
20260430T00Z_MSC_RDPS_AirTemp_IsbL-0225_RLatLon0.09_PT084H.grib2 2026-04-30 03:04 421K
20260430T00Z_MSC_RDPS_AirTemp_IsbL-0250_RLatLon0.09_PT084H.grib2 2026-04-30 03:04 427K
20260430T00Z_MSC_RDPS_AirTemp_IsbL-0275_RLatLon0.09_PT084H.grib2 2026-04-30 03:04 406K
20260430T00Z_MSC_RDPS_AirTemp_IsbL-0300_RLatLon0.09_PT084H.grib2 2026-04-30 03:04 438K
20260430T00Z_MSC_RDPS_AirTemp_IsbL-0350_RLatLon0.09_PT084H.grib2 2026-04-30 03:04 426K
20260430T00Z_MSC_RDPS_AirTemp_IsbL-0400_RLatLon0.09_PT084H.grib2 2026-04-30 03:04 426K
20260430T00Z_MSC_RDPS_AirTemp_IsbL-0450_RLatLon0.09_PT084H.grib2 2026-04-30 03:04 400K
20260430T00Z_MSC_RDPS_AirTemp_IsbL-0500_RLatLon0.09_PT084H.grib2 2026-04-30 03:04 409K
20260430T00Z_MSC_RDPS_AirTemp_IsbL-0550_RLatLon0.09_PT084H.grib2 2026-04-30 03:04 426K
20260430T00Z_MSC_RDPS_AirTemp_IsbL-0600_RLatLon0.09_PT084H.grib2 2026-04-30 03:04 442K
20260430T00Z_MSC_RDPS_AirTemp_IsbL-0650_RLatLon0.09_PT084H.grib2 2026-04-30 03:04 455K
20260430T00Z_MSC_RDPS_AirTemp_IsbL-0700_RLatLon0.09_PT084H.grib2 2026-04-30 03:04 479K
20260430T00Z_MSC_RDPS_AirTemp_IsbL-0750_RLatLon0.09_PT084H.grib2 2026-04-30 03:04 521K
20260430T00Z_MSC_RDPS_AirTemp_IsbL-0800_RLatLon0.09_PT084H.grib2 2026-04-30 03:04 575K
20260430T00Z_MSC_RDPS_AirTemp_IsbL-0850_RLatLon0.09_PT084H.grib2 2026-04-30 03:04 632K
20260430T00Z_MSC_RDPS_AirTemp_IsbL-0875_RLatLon0.09_PT084H.grib2 2026-04-30 03:04 655K
20260430T00Z_MSC_RDPS_AirTemp_IsbL-0900_RLatLon0.09_PT084H.grib2 2026-04-30 03:04 669K
20260430T00Z_MSC_RDPS_AirTemp_IsbL-0925_RLatLon0.09_PT084H.grib2 2026-04-30 03:04 663K
20260430T00Z_MSC_RDPS_AirTemp_IsbL-0950_RLatLon0.09_PT084H.grib2 2026-04-30 03:04 529K
20260430T00Z_MSC_RDPS_AirTemp_IsbL-0970_RLatLon0.09_PT084H.grib2 2026-04-30 03:04 655K
20260430T00Z_MSC_RDPS_AirTemp_IsbL-0985_RLatLon0.09_PT084H.grib2 2026-04-30 03:04 512K
20260430T00Z_MSC_RDPS_AirTemp_IsbL-1000_RLatLon0.09_PT084H.grib2 2026-04-30 03:04 620K
20260430T00Z_MSC_RDPS_AirTemp_IsbL-1015_RLatLon0.09_PT084H.grib2 2026-04-30 03:04 492K
20260430T00Z_MSC_RDPS_Albedo_Sfc_RLatLon0.09_PT084H.grib2 2026-04-30 03:04 152K
20260430T00Z_MSC_RDPS_CAPE_Sfc_RLatLon0.09_PT084H.grib2 2026-04-30 03:04 1.6M
20260430T00Z_MSC_RDPS_CIN_Sfc_RLatLon0.09_PT084H.grib2 2026-04-30 03:04 1.0M
20260430T00Z_MSC_RDPS_CloudWater_EAtm_RLatLon0.09_PT084H.grib2 2026-04-30 03:04 221K
20260430T00Z_MSC_RDPS_ConvectivePrecip-Accum_Sfc_RLatLon0.09_PT084H.grib2 2026-04-30 03:04 1.3M
20260430T00Z_MSC_RDPS_DewPointDepression_AGL-2m_RLatLon0.09_PT084H.grib2 2026-04-30 03:04 401K
20260430T00Z_MSC_RDPS_DewPointDepression_IsbL-0001_RLatLon0.09_PT084H.grib2 2026-04-30 03:04 193
20260430T00Z_MSC_RDPS_DewPointDepression_IsbL-0005_RLatLon0.09_PT084H.grib2 2026-04-30 03:04 193
20260430T00Z_MSC_RDPS_DewPointDepression_IsbL-0010_RLatLon0.09_PT084H.grib2 2026-04-30 03:04 193
20260430T00Z_MSC_RDPS_DewPointDepression_IsbL-0020_RLatLon0.09_PT084H.grib2 2026-04-30 03:04 193
20260430T00Z_MSC_RDPS_DewPointDepression_IsbL-0030_RLatLon0.09_PT084H.grib2 2026-04-30 03:04 193
20260430T00Z_MSC_RDPS_DewPointDepression_IsbL-0050_RLatLon0.09_PT084H.grib2 2026-04-30 03:04 106K
20260430T00Z_MSC_RDPS_DewPointDepression_IsbL-0100_RLatLon0.09_PT084H.grib2 2026-04-30 03:04 121K
20260430T00Z_MSC_RDPS_DewPointDepression_IsbL-0150_RLatLon0.09_PT084H.grib2 2026-04-30 03:04 148K
20260430T00Z_MSC_RDPS_DewPointDepression_IsbL-0175_RLatLon0.09_PT084H.grib2 2026-04-30 03:04 182K
20260430T00Z_MSC_RDPS_DewPointDepression_IsbL-0200_RLatLon0.09_PT084H.grib2 2026-04-30 03:04 218K
20260430T00Z_MSC_RDPS_DewPointDepression_IsbL-0225_RLatLon0.09_PT084H.grib2 2026-04-30 03:04 254K
20260430T00Z_MSC_RDPS_DewPointDepression_IsbL-0250_RLatLon0.09_PT084H.grib2 2026-04-30 03:04 294K
20260430T00Z_MSC_RDPS_DewPointDepression_IsbL-0275_RLatLon0.09_PT084H.grib2 2026-04-30 03:04 308K
20260430T00Z_MSC_RDPS_DewPointDepression_IsbL-0300_RLatLon0.09_PT084H.grib2 2026-04-30 03:04 327K
20260430T00Z_MSC_RDPS_DewPointDepression_IsbL-0350_RLatLon0.09_PT084H.grib2 2026-04-30 03:04 332K
20260430T00Z_MSC_RDPS_DewPointDepression_IsbL-0400_RLatLon0.09_PT084H.grib2 2026-04-30 03:04 342K
20260430T00Z_MSC_RDPS_DewPointDepression_IsbL-0450_RLatLon0.09_PT084H.grib2 2026-04-30 03:04 346K
20260430T00Z_MSC_RDPS_DewPointDepression_IsbL-0500_RLatLon0.09_PT084H.grib2 2026-04-30 03:04 354K
20260430T00Z_MSC_RDPS_DewPointDepression_IsbL-0550_RLatLon0.09_PT084H.grib2 2026-04-30 03:04 364K
20260430T00Z_MSC_RDPS_DewPointDepression_IsbL-0600_RLatLon0.09_PT084H.grib2 2026-04-30 03:04 372K
20260430T00Z_MSC_RDPS_DewPointDepression_IsbL-0650_RLatLon0.09_PT084H.grib2 2026-04-30 03:04 375K
20260430T00Z_MSC_RDPS_DewPointDepression_IsbL-0700_RLatLon0.09_PT084H.grib2 2026-04-30 03:04 385K
20260430T00Z_MSC_RDPS_DewPointDepression_IsbL-0750_RLatLon0.09_PT084H.grib2 2026-04-30 03:04 405K
20260430T00Z_MSC_RDPS_DewPointDepression_IsbL-0800_RLatLon0.09_PT084H.grib2 2026-04-30 03:04 440K
20260430T00Z_MSC_RDPS_DewPointDepression_IsbL-0850_RLatLon0.09_PT084H.grib2 2026-04-30 03:04 474K
20260430T00Z_MSC_RDPS_DewPointDepression_IsbL-0875_RLatLon0.09_PT084H.grib2 2026-04-30 03:04 473K
20260430T00Z_MSC_RDPS_DewPointDepression_IsbL-0900_RLatLon0.09_PT084H.grib2 2026-04-30 03:04 459K
20260430T00Z_MSC_RDPS_DewPointDepression_IsbL-0925_RLatLon0.09_PT084H.grib2 2026-04-30 03:04 444K
20260430T00Z_MSC_RDPS_DewPointDepression_IsbL-0950_RLatLon0.09_PT084H.grib2 2026-04-30 03:04 438K
20260430T00Z_MSC_RDPS_DewPointDepression_IsbL-0970_RLatLon0.09_PT084H.grib2 2026-04-30 03:04 434K
20260430T00Z_MSC_RDPS_DewPointDepression_IsbL-0985_RLatLon0.09_PT084H.grib2 2026-04-30 03:04 431K
20260430T00Z_MSC_RDPS_DewPointDepression_IsbL-1000_RLatLon0.09_PT084H.grib2 2026-04-30 03:04 428K
20260430T00Z_MSC_RDPS_DewPointDepression_IsbL-1015_RLatLon0.09_PT084H.grib2 2026-04-30 03:04 419K
20260430T00Z_MSC_RDPS_DewPoint_AGL-2m_RLatLon0.09_PT084H.grib2 2026-04-30 03:04 397K
20260430T00Z_MSC_RDPS_DownwardLongwaveRadiationFlux-Accum_Sfc_RLatLon0.09_PT084H.grib2 2026-04-30 03:04 441K
20260430T00Z_MSC_RDPS_DownwardShortwaveRadiationFlux-Accum_NTAtm_RLatLon0.09_PT084H.grib2 2026-04-30 03:04 110K
20260430T00Z_MSC_RDPS_DownwardShortwaveRadiationFlux-Accum_Sfc_RLatLon0.09_PT084H.grib2 2026-04-30 03:04 630K
20260430T00Z_MSC_RDPS_FreezingRain-Accum12h_Sfc_RLatLon0.09_PT084H.grib2 2026-04-30 03:04 90K
20260430T00Z_MSC_RDPS_FreezingRain-Accum1h_Sfc_RLatLon0.09_PT084H.grib2 2026-04-30 03:04 48K
20260430T00Z_MSC_RDPS_FreezingRain-Accum24h_Sfc_RLatLon0.09_PT084H.grib2 2026-04-30 03:04 118K
20260430T00Z_MSC_RDPS_FreezingRain-Accum3h_Sfc_RLatLon0.09_PT084H.grib2 2026-04-30 03:04 61K
20260430T00Z_MSC_RDPS_FreezingRain-Accum6h_Sfc_RLatLon0.09_PT084H.grib2 2026-04-30 03:04 77K
20260430T00Z_MSC_RDPS_FreezingRain-Accum_Sfc_RLatLon0.09_PT084H.grib2 2026-04-30 03:04 241K
20260430T00Z_MSC_RDPS_GeopotentialHeight_IsbL-0001_RLatLon0.09_PT084H.grib2 2026-04-30 03:04 314K
20260430T00Z_MSC_RDPS_GeopotentialHeight_IsbL-0005_RLatLon0.09_PT084H.grib2 2026-04-30 03:04 307K
20260430T00Z_MSC_RDPS_GeopotentialHeight_IsbL-0010_RLatLon0.09_PT084H.grib2 2026-04-30 03:04 308K
20260430T00Z_MSC_RDPS_GeopotentialHeight_IsbL-0020_RLatLon0.09_PT084H.grib2 2026-04-30 03:04 405K
20260430T00Z_MSC_RDPS_GeopotentialHeight_IsbL-0030_RLatLon0.09_PT084H.grib2 2026-04-30 03:04 408K
20260430T00Z_MSC_RDPS_GeopotentialHeight_IsbL-0050_RLatLon0.09_PT084H.grib2 2026-04-30 03:04 313K
20260430T00Z_MSC_RDPS_GeopotentialHeight_IsbL-0100_RLatLon0.09_PT084H.grib2 2026-04-30 03:04 288K
20260430T00Z_MSC_RDPS_GeopotentialHeight_IsbL-0150_RLatLon0.09_PT084H.grib2 2026-04-30 03:04 232K
20260430T00Z_MSC_RDPS_GeopotentialHeight_IsbL-0175_RLatLon0.09_PT084H.grib2 2026-04-30 03:04 234K
20260430T00Z_MSC_RDPS_GeopotentialHeight_IsbL-0200_RLatLon0.09_PT084H.grib2 2026-04-30 03:04 265K
20260430T00Z_MSC_RDPS_GeopotentialHeight_IsbL-0225_RLatLon0.09_PT084H.grib2 2026-04-30 03:04 266K
20260430T00Z_MSC_RDPS_GeopotentialHeight_IsbL-0250_RLatLon0.09_PT084H.grib2 2026-04-30 03:04 267K
20260430T00Z_MSC_RDPS_GeopotentialHeight_IsbL-0275_RLatLon0.09_PT084H.grib2 2026-04-30 03:04 266K
20260430T00Z_MSC_RDPS_GeopotentialHeight_IsbL-0300_RLatLon0.09_PT084H.grib2 2026-04-30 03:04 265K
20260430T00Z_MSC_RDPS_GeopotentialHeight_IsbL-0350_RLatLon0.09_PT084H.grib2 2026-04-30 03:04 231K
20260430T00Z_MSC_RDPS_GeopotentialHeight_IsbL-0400_RLatLon0.09_PT084H.grib2 2026-04-30 03:04 228K
20260430T00Z_MSC_RDPS_GeopotentialHeight_IsbL-0450_RLatLon0.09_PT084H.grib2 2026-04-30 03:04 298K
20260430T00Z_MSC_RDPS_GeopotentialHeight_IsbL-0500_RLatLon0.09_PT084H.grib2 2026-04-30 03:04 292K
20260430T00Z_MSC_RDPS_GeopotentialHeight_IsbL-0550_RLatLon0.09_PT084H.grib2 2026-04-30 03:04 288K
20260430T00Z_MSC_RDPS_GeopotentialHeight_IsbL-0600_RLatLon0.09_PT084H.grib2 2026-04-30 03:04 283K
20260430T00Z_MSC_RDPS_GeopotentialHeight_IsbL-0650_RLatLon0.09_PT084H.grib2 2026-04-30 03:04 255K
20260430T00Z_MSC_RDPS_GeopotentialHeight_IsbL-0700_RLatLon0.09_PT084H.grib2 2026-04-30 03:04 254K
20260430T00Z_MSC_RDPS_GeopotentialHeight_IsbL-0750_RLatLon0.09_PT084H.grib2 2026-04-30 03:04 257K
20260430T00Z_MSC_RDPS_GeopotentialHeight_IsbL-0800_RLatLon0.09_PT084H.grib2 2026-04-30 03:04 350K
20260430T00Z_MSC_RDPS_GeopotentialHeight_IsbL-0850_RLatLon0.09_PT084H.grib2 2026-04-30 03:04 360K
20260430T00Z_MSC_RDPS_GeopotentialHeight_IsbL-0875_RLatLon0.09_PT084H.grib2 2026-04-30 03:04 363K
20260430T00Z_MSC_RDPS_GeopotentialHeight_IsbL-0900_RLatLon0.09_PT084H.grib2 2026-04-30 03:04 366K
20260430T00Z_MSC_RDPS_GeopotentialHeight_IsbL-0925_RLatLon0.09_PT084H.grib2 2026-04-30 03:04 370K
20260430T00Z_MSC_RDPS_GeopotentialHeight_IsbL-0950_RLatLon0.09_PT084H.grib2 2026-04-30 03:04 373K
20260430T00Z_MSC_RDPS_GeopotentialHeight_IsbL-0970_RLatLon0.09_PT084H.grib2 2026-04-30 03:04 378K
20260430T00Z_MSC_RDPS_GeopotentialHeight_IsbL-0985_RLatLon0.09_PT084H.grib2 2026-04-30 03:04 387K
20260430T00Z_MSC_RDPS_GeopotentialHeight_IsbL-1000_RLatLon0.09_PT084H.grib2 2026-04-30 03:04 399K
20260430T00Z_MSC_RDPS_GeopotentialHeight_IsbL-1015_RLatLon0.09_PT084H.grib2 2026-04-30 03:04 414K
20260430T00Z_MSC_RDPS_Humidex_Sfc_RLatLon0.09_PT084H.grib2 2026-04-30 03:04 2.4M
20260430T00Z_MSC_RDPS_IcePellets-Accum12h_Sfc_RLatLon0.09_PT084H.grib2 2026-04-30 03:04 6.8K
20260430T00Z_MSC_RDPS_IcePellets-Accum1h_Sfc_RLatLon0.09_PT084H.grib2 2026-04-30 03:04 4.9K
20260430T00Z_MSC_RDPS_IcePellets-Accum24h_Sfc_RLatLon0.09_PT084H.grib2 2026-04-30 03:04 16K
20260430T00Z_MSC_RDPS_IcePellets-Accum3h_Sfc_RLatLon0.09_PT084H.grib2 2026-04-30 03:04 5.1K
20260430T00Z_MSC_RDPS_IcePellets-Accum6h_Sfc_RLatLon0.09_PT084H.grib2 2026-04-30 03:04 6.4K
20260430T00Z_MSC_RDPS_IcePellets-Accum_Sfc_RLatLon0.09_PT084H.grib2 2026-04-30 03:04 38K
20260430T00Z_MSC_RDPS_KIndex_Sfc_RLatLon0.09_PT084H.grib2 2026-04-30 03:04 2.5M
20260430T00Z_MSC_RDPS_LatentHeatNetFlux_Sfc_RLatLon0.09_PT084H.grib2 2026-04-30 03:04 332K
20260430T00Z_MSC_RDPS_LiftedIndex-MU-VT_IsbL-0500_RLatLon0.09_PT084H.grib2 2026-04-30 03:04 2.4M
20260430T00Z_MSC_RDPS_NetLongwaveRadiationFlux-Accum_Sfc_RLatLon0.09_PT084H.grib2 2026-04-30 03:04 490K
20260430T00Z_MSC_RDPS_NetShortwaveRadiationFlux-Accum_Sfc_RLatLon0.09_PT084H.grib2 2026-04-30 03:04 632K
20260430T00Z_MSC_RDPS_PlanetaryBoundaryLayerHeight_Sfc_RLatLon0.09_PT084H.grib2 2026-04-30 03:04 1.1M
20260430T00Z_MSC_RDPS_Precip-Accum12h_Sfc_RLatLon0.09_PT084H.grib2 2026-04-30 03:04 1.6M
20260430T00Z_MSC_RDPS_Precip-Accum1h_Sfc_RLatLon0.09_PT084H.grib2 2026-04-30 03:04 1.3M
20260430T00Z_MSC_RDPS_Precip-Accum24h_Sfc_RLatLon0.09_PT084H.grib2 2026-04-30 03:04 1.8M
20260430T00Z_MSC_RDPS_Precip-Accum3h_Sfc_RLatLon0.09_PT084H.grib2 2026-04-30 03:04 1.4M
20260430T00Z_MSC_RDPS_Precip-Accum6h_Sfc_RLatLon0.09_PT084H.grib2 2026-04-30 03:04 1.5M
20260430T00Z_MSC_RDPS_Precip-Accum_Sfc_RLatLon0.09_PT084H.grib2 2026-04-30 03:04 2.2M
20260430T00Z_MSC_RDPS_PrecipRate_Sfc_RLatLon0.09_PT084H.grib2 2026-04-30 03:04 186K
20260430T00Z_MSC_RDPS_PrecipType-Instant_Sfc_RLatLon0.09_PT084H.grib2 2026-04-30 03:04 607K
20260430T00Z_MSC_RDPS_Pressure-Trend3h_Sfc_RLatLon0.09_PT084H.grib2 2026-04-30 03:04 1.2M
20260430T00Z_MSC_RDPS_Pressure_MSL_RLatLon0.09_PT084H.grib2 2026-04-30 03:04 329K
20260430T00Z_MSC_RDPS_Pressure_PVU-1.5_RLatLon0.09_PT084H.grib2 2026-04-30 03:04 2.4M
20260430T00Z_MSC_RDPS_Pressure_PVU-1_RLatLon0.09_PT084H.grib2 2026-04-30 03:04 2.4M
20260430T00Z_MSC_RDPS_Pressure_PVU-2_RLatLon0.09_PT084H.grib2 2026-04-30 03:04 2.4M
20260430T00Z_MSC_RDPS_Pressure_Sfc_RLatLon0.09_PT084H.grib2 2026-04-30 03:04 501K
20260430T00Z_MSC_RDPS_RadiativeTemp_Sfc_RLatLon0.09_PT084H.grib2 2026-04-30 03:04 304K
20260430T00Z_MSC_RDPS_Rain-Accum12h_Sfc_RLatLon0.09_PT084H.grib2 2026-04-30 03:04 1.1M
20260430T00Z_MSC_RDPS_Rain-Accum1h_Sfc_RLatLon0.09_PT084H.grib2 2026-04-30 03:04 559K
20260430T00Z_MSC_RDPS_Rain-Accum24h_Sfc_RLatLon0.09_PT084H.grib2 2026-04-30 03:04 1.3M
20260430T00Z_MSC_RDPS_Rain-Accum3h_Sfc_RLatLon0.09_PT084H.grib2 2026-04-30 03:04 721K
20260430T00Z_MSC_RDPS_Rain-Accum6h_Sfc_RLatLon0.09_PT084H.grib2 2026-04-30 03:04 1.0M
20260430T00Z_MSC_RDPS_Rain-Accum_Sfc_RLatLon0.09_PT084H.grib2 2026-04-30 03:04 1.8M
20260430T00Z_MSC_RDPS_RelativeHumidity_AGL-2m_RLatLon0.09_PT084H.grib2 2026-04-30 03:04 1.0M
20260430T00Z_MSC_RDPS_RelativeHumidity_IsbL-0010_RLatLon0.09_PT084H.grib2 2026-04-30 03:04 613K
20260430T00Z_MSC_RDPS_RelativeHumidity_IsbL-0020_RLatLon0.09_PT084H.grib2 2026-04-30 03:04 652K
20260430T00Z_MSC_RDPS_RelativeHumidity_IsbL-0030_RLatLon0.09_PT084H.grib2 2026-04-30 03:04 603K
20260430T00Z_MSC_RDPS_RelativeHumidity_IsbL-0050_RLatLon0.09_PT084H.grib2 2026-04-30 03:04 313K
20260430T00Z_MSC_RDPS_RelativeHumidity_IsbL-0100_RLatLon0.09_PT084H.grib2 2026-04-30 03:04 277K
20260430T00Z_MSC_RDPS_RelativeHumidity_IsbL-0150_RLatLon0.09_PT084H.grib2 2026-04-30 03:04 415K
20260430T00Z_MSC_RDPS_RelativeHumidity_IsbL-0175_RLatLon0.09_PT084H.grib2 2026-04-30 03:04 476K
20260430T00Z_MSC_RDPS_RelativeHumidity_IsbL-0200_RLatLon0.09_PT084H.grib2 2026-04-30 03:04 553K
20260430T00Z_MSC_RDPS_RelativeHumidity_IsbL-0225_RLatLon0.09_PT084H.grib2 2026-04-30 03:04 618K
20260430T00Z_MSC_RDPS_RelativeHumidity_IsbL-0250_RLatLon0.09_PT084H.grib2 2026-04-30 03:04 682K
20260430T00Z_MSC_RDPS_RelativeHumidity_IsbL-0275_RLatLon0.09_PT084H.grib2 2026-04-30 03:04 710K
20260430T00Z_MSC_RDPS_RelativeHumidity_IsbL-0300_RLatLon0.09_PT084H.grib2 2026-04-30 03:04 752K
20260430T00Z_MSC_RDPS_RelativeHumidity_IsbL-0350_RLatLon0.09_PT084H.grib2 2026-04-30 03:04 779K
20260430T00Z_MSC_RDPS_RelativeHumidity_IsbL-0400_RLatLon0.09_PT084H.grib2 2026-04-30 03:04 795K
20260430T00Z_MSC_RDPS_RelativeHumidity_IsbL-0450_RLatLon0.09_PT084H.grib2 2026-04-30 03:04 798K
20260430T00Z_MSC_RDPS_RelativeHumidity_IsbL-0500_RLatLon0.09_PT084H.grib2 2026-04-30 03:04 806K
20260430T00Z_MSC_RDPS_RelativeHumidity_IsbL-0550_RLatLon0.09_PT084H.grib2 2026-04-30 03:04 826K
20260430T00Z_MSC_RDPS_RelativeHumidity_IsbL-0600_RLatLon0.09_PT084H.grib2 2026-04-30 03:04 844K
20260430T00Z_MSC_RDPS_RelativeHumidity_IsbL-0650_RLatLon0.09_PT084H.grib2 2026-04-30 03:04 850K
20260430T00Z_MSC_RDPS_RelativeHumidity_IsbL-0700_RLatLon0.09_PT084H.grib2 2026-04-30 03:04 879K
20260430T00Z_MSC_RDPS_RelativeHumidity_IsbL-0750_RLatLon0.09_PT084H.grib2 2026-04-30 03:04 919K
20260430T00Z_MSC_RDPS_RelativeHumidity_IsbL-0800_RLatLon0.09_PT084H.grib2 2026-04-30 03:04 1.0M
20260430T00Z_MSC_RDPS_RelativeHumidity_IsbL-0850_RLatLon0.09_PT084H.grib2 2026-04-30 03:04 1.0M
20260430T00Z_MSC_RDPS_RelativeHumidity_IsbL-0875_RLatLon0.09_PT084H.grib2 2026-04-30 03:04 1.1M
20260430T00Z_MSC_RDPS_RelativeHumidity_IsbL-0900_RLatLon0.09_PT084H.grib2 2026-04-30 03:04 1.1M
20260430T00Z_MSC_RDPS_RelativeHumidity_IsbL-0925_RLatLon0.09_PT084H.grib2 2026-04-30 03:04 1.1M
20260430T00Z_MSC_RDPS_RelativeHumidity_IsbL-0950_RLatLon0.09_PT084H.grib2 2026-04-30 03:04 1.1M
20260430T00Z_MSC_RDPS_RelativeHumidity_IsbL-0970_RLatLon0.09_PT084H.grib2 2026-04-30 03:04 1.0M
20260430T00Z_MSC_RDPS_RelativeHumidity_IsbL-0985_RLatLon0.09_PT084H.grib2 2026-04-30 03:04 1.0M
20260430T00Z_MSC_RDPS_RelativeHumidity_IsbL-1000_RLatLon0.09_PT084H.grib2 2026-04-30 03:04 1.0M
20260430T00Z_MSC_RDPS_RelativeHumidity_IsbL-1015_RLatLon0.09_PT084H.grib2 2026-04-30 03:04 1.0M
20260430T00Z_MSC_RDPS_Runoff-Accum_Sfc_RLatLon0.09_PT084H.grib2 2026-04-30 03:04 73K
20260430T00Z_MSC_RDPS_SWEATIndex_Sfc_RLatLon0.09_PT084H.grib2 2026-04-30 03:04 2.4M
20260430T00Z_MSC_RDPS_SeeingIndex_EAtm_RLatLon0.09_PT084H.grib2 2026-04-30 03:04 1.1M
20260430T00Z_MSC_RDPS_SensibleHeatNetFlux_Sfc_RLatLon0.09_PT084H.grib2 2026-04-30 03:04 308K
20260430T00Z_MSC_RDPS_ShowalterIndex_IsbL-0500_RLatLon0.09_PT084H.grib2 2026-04-30 03:04 2.6M
20260430T00Z_MSC_RDPS_SkyTransparencyIndex_EAtm_RLatLon0.09_PT084H.grib2 2026-04-30 03:04 710K
20260430T00Z_MSC_RDPS_Snow-Accum12h_Sfc_RLatLon0.09_PT084H.grib2 2026-04-30 03:04 620K
20260430T00Z_MSC_RDPS_Snow-Accum1h_Sfc_RLatLon0.09_PT084H.grib2 2026-04-30 03:04 448K
20260430T00Z_MSC_RDPS_Snow-Accum24h_Sfc_RLatLon0.09_PT084H.grib2 2026-04-30 03:04 652K
20260430T00Z_MSC_RDPS_Snow-Accum3h_Sfc_RLatLon0.09_PT084H.grib2 2026-04-30 03:04 457K
20260430T00Z_MSC_RDPS_Snow-Accum6h_Sfc_RLatLon0.09_PT084H.grib2 2026-04-30 03:04 583K
20260430T00Z_MSC_RDPS_Snow-Accum_Sfc_RLatLon0.09_PT084H.grib2 2026-04-30 03:04 796K
20260430T00Z_MSC_RDPS_SnowDensity_Sfc_RLatLon0.09_PT084H.grib2 2026-04-30 03:04 178K
20260430T00Z_MSC_RDPS_SnowDepth_Sfc_RLatLon0.09_PT084H.grib2 2026-04-30 03:04 661K
20260430T00Z_MSC_RDPS_SoilTemp_DBS-0to10cm_RLatLon0.09_PT084H.grib2 2026-04-30 03:04 244K
20260430T00Z_MSC_RDPS_SoilTemp_Sfc_RLatLon0.09_PT084H.grib2 2026-04-30 03:04 275K
20260430T00Z_MSC_RDPS_SoilVolumetricIceContent_Sfc_RLatLon0.09_PT084H.grib2 2026-04-30 03:04 159K
20260430T00Z_MSC_RDPS_SoilVolumetricWaterContent_DBS-0to10cm_RLatLon0.09_PT084H.grib2 2026-04-30 03:04 274K
20260430T00Z_MSC_RDPS_SoilVolumetricWaterContent_DBS-0to1cm_RLatLon0.09_PT084H.grib2 2026-04-30 03:04 343K
20260430T00Z_MSC_RDPS_SpecificHumidity_AGL-120m_RLatLon0.09_PT084H.grib2 2026-04-30 03:04 494K
20260430T00Z_MSC_RDPS_SpecificHumidity_AGL-2m_RLatLon0.09_PT084H.grib2 2026-04-30 03:04 660K
20260430T00Z_MSC_RDPS_SpecificHumidity_AGL-40m_RLatLon0.09_PT084H.grib2 2026-04-30 03:04 500K
20260430T00Z_MSC_RDPS_SpecificHumidity_AGL-80m_RLatLon0.09_PT084H.grib2 2026-04-30 03:04 496K
20260430T00Z_MSC_RDPS_SpecificHumidity_IsbL-0001_RLatLon0.09_PT084H.grib2 2026-04-30 03:04 359K
20260430T00Z_MSC_RDPS_SpecificHumidity_IsbL-0005_RLatLon0.09_PT084H.grib2 2026-04-30 03:04 351K
20260430T00Z_MSC_RDPS_SpecificHumidity_IsbL-0010_RLatLon0.09_PT084H.grib2 2026-04-30 03:04 387K
20260430T00Z_MSC_RDPS_SpecificHumidity_IsbL-0020_RLatLon0.09_PT084H.grib2 2026-04-30 03:04 368K
20260430T00Z_MSC_RDPS_SpecificHumidity_IsbL-0030_RLatLon0.09_PT084H.grib2 2026-04-30 03:04 466K
20260430T00Z_MSC_RDPS_SpecificHumidity_IsbL-0050_RLatLon0.09_PT084H.grib2 2026-04-30 03:04 435K
20260430T00Z_MSC_RDPS_SpecificHumidity_IsbL-0100_RLatLon0.09_PT084H.grib2 2026-04-30 03:04 415K
20260430T00Z_MSC_RDPS_SpecificHumidity_IsbL-0150_RLatLon0.09_PT084H.grib2 2026-04-30 03:04 452K
20260430T00Z_MSC_RDPS_SpecificHumidity_IsbL-0175_RLatLon0.09_PT084H.grib2 2026-04-30 03:04 433K
20260430T00Z_MSC_RDPS_SpecificHumidity_IsbL-0200_RLatLon0.09_PT084H.grib2 2026-04-30 03:04 450K
20260430T00Z_MSC_RDPS_SpecificHumidity_IsbL-0225_RLatLon0.09_PT084H.grib2 2026-04-30 03:04 450K
20260430T00Z_MSC_RDPS_SpecificHumidity_IsbL-0250_RLatLon0.09_PT084H.grib2 2026-04-30 03:04 509K
20260430T00Z_MSC_RDPS_SpecificHumidity_IsbL-0275_RLatLon0.09_PT084H.grib2 2026-04-30 03:04 472K
20260430T00Z_MSC_RDPS_SpecificHumidity_IsbL-0300_RLatLon0.09_PT084H.grib2 2026-04-30 03:04 446K
20260430T00Z_MSC_RDPS_SpecificHumidity_IsbL-0350_RLatLon0.09_PT084H.grib2 2026-04-30 03:04 567K
20260430T00Z_MSC_RDPS_SpecificHumidity_IsbL-0400_RLatLon0.09_PT084H.grib2 2026-04-30 03:04 524K
20260430T00Z_MSC_RDPS_SpecificHumidity_IsbL-0450_RLatLon0.09_PT084H.grib2 2026-04-30 03:04 572K
20260430T00Z_MSC_RDPS_SpecificHumidity_IsbL-0500_RLatLon0.09_PT084H.grib2 2026-04-30 03:04 507K
20260430T00Z_MSC_RDPS_SpecificHumidity_IsbL-0550_RLatLon0.09_PT084H.grib2 2026-04-30 03:04 566K
20260430T00Z_MSC_RDPS_SpecificHumidity_IsbL-0600_RLatLon0.09_PT084H.grib2 2026-04-30 03:04 634K
20260430T00Z_MSC_RDPS_SpecificHumidity_IsbL-0650_RLatLon0.09_PT084H.grib2 2026-04-30 03:04 546K
20260430T00Z_MSC_RDPS_SpecificHumidity_IsbL-0700_RLatLon0.09_PT084H.grib2 2026-04-30 03:04 587K
20260430T00Z_MSC_RDPS_SpecificHumidity_IsbL-0750_RLatLon0.09_PT084H.grib2 2026-04-30 03:04 641K
20260430T00Z_MSC_RDPS_SpecificHumidity_IsbL-0800_RLatLon0.09_PT084H.grib2 2026-04-30 03:04 723K
20260430T00Z_MSC_RDPS_SpecificHumidity_IsbL-0850_RLatLon0.09_PT084H.grib2 2026-04-30 03:04 800K
20260430T00Z_MSC_RDPS_SpecificHumidity_IsbL-0875_RLatLon0.09_PT084H.grib2 2026-04-30 03:04 826K
20260430T00Z_MSC_RDPS_SpecificHumidity_IsbL-0900_RLatLon0.09_PT084H.grib2 2026-04-30 03:04 837K
20260430T00Z_MSC_RDPS_SpecificHumidity_IsbL-0925_RLatLon0.09_PT084H.grib2 2026-04-30 03:04 835K
20260430T00Z_MSC_RDPS_SpecificHumidity_IsbL-0950_RLatLon0.09_PT084H.grib2 2026-04-30 03:04 836K
20260430T00Z_MSC_RDPS_SpecificHumidity_IsbL-0970_RLatLon0.09_PT084H.grib2 2026-04-30 03:04 691K
20260430T00Z_MSC_RDPS_SpecificHumidity_IsbL-0985_RLatLon0.09_PT084H.grib2 2026-04-30 03:04 687K
20260430T00Z_MSC_RDPS_SpecificHumidity_IsbL-1000_RLatLon0.09_PT084H.grib2 2026-04-30 03:04 682K
20260430T00Z_MSC_RDPS_SpecificHumidity_IsbL-1015_RLatLon0.09_PT084H.grib2 2026-04-30 03:04 672K
20260430T00Z_MSC_RDPS_SpecificHumidity_Sfc_RLatLon0.09_PT084H.grib2 2026-04-30 03:04 295K
20260430T00Z_MSC_RDPS_StormRelativeHelicity_EtaL-10000_RLatLon0.09_PT084H.grib2 2026-04-30 03:04 1.0M
20260430T00Z_MSC_RDPS_StormSeverityIndex_EtaL-10000_RLatLon0.09_PT084H.grib2 2026-04-30 03:04 1.2M
20260430T00Z_MSC_RDPS_Thickness_IsbL-0850to0700_RLatLon0.09_PT084H.grib2 2026-04-30 03:04 176K
20260430T00Z_MSC_RDPS_Thickness_IsbL-1000to0500_RLatLon0.09_PT084H.grib2 2026-04-30 03:04 196K
20260430T00Z_MSC_RDPS_Thickness_IsbL-1000to0850_RLatLon0.09_PT084H.grib2 2026-04-30 03:04 263K
20260430T00Z_MSC_RDPS_TotalCloudCover_Sfc_RLatLon0.09_PT084H.grib2 2026-04-30 03:04 670K
20260430T00Z_MSC_RDPS_TotalTotalsIndex_Sfc_RLatLon0.09_PT084H.grib2 2026-04-30 03:04 2.4M
20260430T00Z_MSC_RDPS_UVIndex-ClearSky_Sfc_RLatLon0.09_PT084H.grib2 2026-04-30 03:04 144K
20260430T00Z_MSC_RDPS_UVIndex_Sfc_RLatLon0.09_PT084H.grib2 2026-04-30 03:04 346K
20260430T00Z_MSC_RDPS_UpwardLongwaveRadiationFlux_NTAtm_RLatLon0.09_PT084H.grib2 2026-04-30 03:04 493K
20260430T00Z_MSC_RDPS_UpwardShortwaveRadiationFlux_NTAtm_RLatLon0.09_PT084H.grib2 2026-04-30 03:04 309K
20260430T00Z_MSC_RDPS_VerticalVelocity_IsbL-0250_RLatLon0.09_PT084H.grib2 2026-04-30 03:04 437K
20260430T00Z_MSC_RDPS_VerticalVelocity_IsbL-0500_RLatLon0.09_PT084H.grib2 2026-04-30 03:04 546K
20260430T00Z_MSC_RDPS_VerticalVelocity_IsbL-0700_RLatLon0.09_PT084H.grib2 2026-04-30 03:04 596K
20260430T00Z_MSC_RDPS_VerticalVelocity_IsbL-0850_RLatLon0.09_PT084H.grib2 2026-04-30 03:04 700K
20260430T00Z_MSC_RDPS_VerticalWindShear_EtaL-6500_RLatLon0.09_PT084H.grib2 2026-04-30 03:04 1.1M
20260430T00Z_MSC_RDPS_WindChill_Sfc_RLatLon0.09_PT084H.grib2 2026-04-30 03:04 1.2M
20260430T00Z_MSC_RDPS_WindDir_AGL-10m_RLatLon0.09_PT084H.grib2 2026-04-30 03:04 1.0M
20260430T00Z_MSC_RDPS_WindDir_AGL-120m_RLatLon0.09_PT084H.grib2 2026-04-30 03:04 609K
20260430T00Z_MSC_RDPS_WindDir_AGL-40m_RLatLon0.09_PT084H.grib2 2026-04-30 03:04 645K
20260430T00Z_MSC_RDPS_WindDir_AGL-80m_RLatLon0.09_PT084H.grib2 2026-04-30 03:04 624K
20260430T00Z_MSC_RDPS_WindDir_IsbL-0001_RLatLon0.09_PT084H.grib2 2026-04-30 03:04 318K
20260430T00Z_MSC_RDPS_WindDir_IsbL-0005_RLatLon0.09_PT084H.grib2 2026-04-30 03:04 390K
20260430T00Z_MSC_RDPS_WindDir_IsbL-0010_RLatLon0.09_PT084H.grib2 2026-04-30 03:04 400K
20260430T00Z_MSC_RDPS_WindDir_IsbL-0020_RLatLon0.09_PT084H.grib2 2026-04-30 03:04 434K
20260430T00Z_MSC_RDPS_WindDir_IsbL-0030_RLatLon0.09_PT084H.grib2 2026-04-30 03:04 420K
20260430T00Z_MSC_RDPS_WindDir_IsbL-0050_RLatLon0.09_PT084H.grib2 2026-04-30 03:04 423K
20260430T00Z_MSC_RDPS_WindDir_IsbL-0100_RLatLon0.09_PT084H.grib2 2026-04-30 03:04 410K
20260430T00Z_MSC_RDPS_WindDir_IsbL-0150_RLatLon0.09_PT084H.grib2 2026-04-30 03:04 410K
20260430T00Z_MSC_RDPS_WindDir_IsbL-0175_RLatLon0.09_PT084H.grib2 2026-04-30 03:04 430K
20260430T00Z_MSC_RDPS_WindDir_IsbL-0200_RLatLon0.09_PT084H.grib2 2026-04-30 03:04 449K
20260430T00Z_MSC_RDPS_WindDir_IsbL-0225_RLatLon0.09_PT084H.grib2 2026-04-30 03:04 455K
20260430T00Z_MSC_RDPS_WindDir_IsbL-0250_RLatLon0.09_PT084H.grib2 2026-04-30 03:04 458K
20260430T00Z_MSC_RDPS_WindDir_IsbL-0275_RLatLon0.09_PT084H.grib2 2026-04-30 03:04 483K
20260430T00Z_MSC_RDPS_WindDir_IsbL-0300_RLatLon0.09_PT084H.grib2 2026-04-30 03:04 481K
20260430T00Z_MSC_RDPS_WindDir_IsbL-0350_RLatLon0.09_PT084H.grib2 2026-04-30 03:04 504K
20260430T00Z_MSC_RDPS_WindDir_IsbL-0400_RLatLon0.09_PT084H.grib2 2026-04-30 03:04 525K
20260430T00Z_MSC_RDPS_WindDir_IsbL-0450_RLatLon0.09_PT084H.grib2 2026-04-30 03:04 536K
20260430T00Z_MSC_RDPS_WindDir_IsbL-0500_RLatLon0.09_PT084H.grib2 2026-04-30 03:04 541K
20260430T00Z_MSC_RDPS_WindDir_IsbL-0550_RLatLon0.09_PT084H.grib2 2026-04-30 03:04 553K
20260430T00Z_MSC_RDPS_WindDir_IsbL-0600_RLatLon0.09_PT084H.grib2 2026-04-30 03:04 572K
20260430T00Z_MSC_RDPS_WindDir_IsbL-0650_RLatLon0.09_PT084H.grib2 2026-04-30 03:04 606K
20260430T00Z_MSC_RDPS_WindDir_IsbL-0700_RLatLon0.09_PT084H.grib2 2026-04-30 03:04 642K
20260430T00Z_MSC_RDPS_WindDir_IsbL-0750_RLatLon0.09_PT084H.grib2 2026-04-30 03:04 687K
20260430T00Z_MSC_RDPS_WindDir_IsbL-0800_RLatLon0.09_PT084H.grib2 2026-04-30 03:04 761K
20260430T00Z_MSC_RDPS_WindDir_IsbL-0850_RLatLon0.09_PT084H.grib2 2026-04-30 03:04 848K
20260430T00Z_MSC_RDPS_WindDir_IsbL-0875_RLatLon0.09_PT084H.grib2 2026-04-30 03:04 884K
20260430T00Z_MSC_RDPS_WindDir_IsbL-0900_RLatLon0.09_PT084H.grib2 2026-04-30 03:04 902K
20260430T00Z_MSC_RDPS_WindDir_IsbL-0925_RLatLon0.09_PT084H.grib2 2026-04-30 03:04 914K
20260430T00Z_MSC_RDPS_WindDir_IsbL-0950_RLatLon0.09_PT084H.grib2 2026-04-30 03:04 918K
20260430T00Z_MSC_RDPS_WindDir_IsbL-0970_RLatLon0.09_PT084H.grib2 2026-04-30 03:04 925K
20260430T00Z_MSC_RDPS_WindDir_IsbL-0985_RLatLon0.09_PT084H.grib2 2026-04-30 03:04 938K
20260430T00Z_MSC_RDPS_WindDir_IsbL-1000_RLatLon0.09_PT084H.grib2 2026-04-30 03:04 954K
20260430T00Z_MSC_RDPS_WindDir_IsbL-1015_RLatLon0.09_PT084H.grib2 2026-04-30 03:04 971K
20260430T00Z_MSC_RDPS_WindGust-Max_AGL-10m_RLatLon0.09_PT084H.grib2 2026-04-30 03:04 1.0M
20260430T00Z_MSC_RDPS_WindGust-Min_AGL-10m_RLatLon0.09_PT084H.grib2 2026-04-30 03:04 1.0M
20260430T00Z_MSC_RDPS_WindGust_AGL-10m_RLatLon0.09_PT084H.grib2 2026-04-30 03:04 1.0M
20260430T00Z_MSC_RDPS_WindSpeed_AGL-10m_RLatLon0.09_PT084H.grib2 2026-04-30 03:04 849K
20260430T00Z_MSC_RDPS_WindSpeed_AGL-120m_RLatLon0.09_PT084H.grib2 2026-04-30 03:04 551K
20260430T00Z_MSC_RDPS_WindSpeed_AGL-40m_RLatLon0.09_PT084H.grib2 2026-04-30 03:04 550K
20260430T00Z_MSC_RDPS_WindSpeed_AGL-80m_RLatLon0.09_PT084H.grib2 2026-04-30 03:04 550K
20260430T00Z_MSC_RDPS_WindSpeed_IsbL-0001_RLatLon0.09_PT084H.grib2 2026-04-30 03:04 256K
20260430T00Z_MSC_RDPS_WindSpeed_IsbL-0005_RLatLon0.09_PT084H.grib2 2026-04-30 03:04 347K
20260430T00Z_MSC_RDPS_WindSpeed_IsbL-0010_RLatLon0.09_PT084H.grib2 2026-04-30 03:04 399K
20260430T00Z_MSC_RDPS_WindSpeed_IsbL-0020_RLatLon0.09_PT084H.grib2 2026-04-30 03:04 423K
20260430T00Z_MSC_RDPS_WindSpeed_IsbL-0030_RLatLon0.09_PT084H.grib2 2026-04-30 03:04 323K
20260430T00Z_MSC_RDPS_WindSpeed_IsbL-0050_RLatLon0.09_PT084H.grib2 2026-04-30 03:04 351K
20260430T00Z_MSC_RDPS_WindSpeed_IsbL-0100_RLatLon0.09_PT084H.grib2 2026-04-30 03:04 477K
20260430T00Z_MSC_RDPS_WindSpeed_IsbL-0150_RLatLon0.09_PT084H.grib2 2026-04-30 03:04 385K
20260430T00Z_MSC_RDPS_WindSpeed_IsbL-0175_RLatLon0.09_PT084H.grib2 2026-04-30 03:04 430K
20260430T00Z_MSC_RDPS_WindSpeed_IsbL-0200_RLatLon0.09_PT084H.grib2 2026-04-30 03:04 446K
20260430T00Z_MSC_RDPS_WindSpeed_IsbL-0225_RLatLon0.09_PT084H.grib2 2026-04-30 03:04 451K
20260430T00Z_MSC_RDPS_WindSpeed_IsbL-0250_RLatLon0.09_PT084H.grib2 2026-04-30 03:04 455K
20260430T00Z_MSC_RDPS_WindSpeed_IsbL-0275_RLatLon0.09_PT084H.grib2 2026-04-30 03:04 474K
20260430T00Z_MSC_RDPS_WindSpeed_IsbL-0300_RLatLon0.09_PT084H.grib2 2026-04-30 03:04 470K
20260430T00Z_MSC_RDPS_WindSpeed_IsbL-0350_RLatLon0.09_PT084H.grib2 2026-04-30 03:04 478K
20260430T00Z_MSC_RDPS_WindSpeed_IsbL-0400_RLatLon0.09_PT084H.grib2 2026-04-30 03:04 466K
20260430T00Z_MSC_RDPS_WindSpeed_IsbL-0450_RLatLon0.09_PT084H.grib2 2026-04-30 03:04 466K
20260430T00Z_MSC_RDPS_WindSpeed_IsbL-0500_RLatLon0.09_PT084H.grib2 2026-04-30 03:04 464K
20260430T00Z_MSC_RDPS_WindSpeed_IsbL-0550_RLatLon0.09_PT084H.grib2 2026-04-30 03:04 465K
20260430T00Z_MSC_RDPS_WindSpeed_IsbL-0600_RLatLon0.09_PT084H.grib2 2026-04-30 03:04 591K
20260430T00Z_MSC_RDPS_WindSpeed_IsbL-0650_RLatLon0.09_PT084H.grib2 2026-04-30 03:04 609K
20260430T00Z_MSC_RDPS_WindSpeed_IsbL-0700_RLatLon0.09_PT084H.grib2 2026-04-30 03:04 632K
20260430T00Z_MSC_RDPS_WindSpeed_IsbL-0750_RLatLon0.09_PT084H.grib2 2026-04-30 03:04 708K
20260430T00Z_MSC_RDPS_WindSpeed_IsbL-0800_RLatLon0.09_PT084H.grib2 2026-04-30 03:04 759K
20260430T00Z_MSC_RDPS_WindSpeed_IsbL-0850_RLatLon0.09_PT084H.grib2 2026-04-30 03:04 821K
20260430T00Z_MSC_RDPS_WindSpeed_IsbL-0875_RLatLon0.09_PT084H.grib2 2026-04-30 03:04 844K
20260430T00Z_MSC_RDPS_WindSpeed_IsbL-0900_RLatLon0.09_PT084H.grib2 2026-04-30 03:04 857K
20260430T00Z_MSC_RDPS_WindSpeed_IsbL-0925_RLatLon0.09_PT084H.grib2 2026-04-30 03:04 866K
20260430T00Z_MSC_RDPS_WindSpeed_IsbL-0950_RLatLon0.09_PT084H.grib2 2026-04-30 03:04 869K
20260430T00Z_MSC_RDPS_WindSpeed_IsbL-0970_RLatLon0.09_PT084H.grib2 2026-04-30 03:04 869K
20260430T00Z_MSC_RDPS_WindSpeed_IsbL-0985_RLatLon0.09_PT084H.grib2 2026-04-30 03:04 865K
20260430T00Z_MSC_RDPS_WindSpeed_IsbL-1000_RLatLon0.09_PT084H.grib2 2026-04-30 03:04 859K
20260430T00Z_MSC_RDPS_WindSpeed_IsbL-1015_RLatLon0.09_PT084H.grib2 2026-04-30 03:04 848K
20260430T00Z_MSC_RDPS_WindU_AGL-10m_RLatLon0.09_PT084H.grib2 2026-04-30 03:04 438K
20260430T00Z_MSC_RDPS_WindU_AGL-120m_RLatLon0.09_PT084H.grib2 2026-04-30 03:04 427K
20260430T00Z_MSC_RDPS_WindU_AGL-40m_RLatLon0.09_PT084H.grib2 2026-04-30 03:04 546K
20260430T00Z_MSC_RDPS_WindU_AGL-80m_RLatLon0.09_PT084H.grib2 2026-04-30 03:04 546K
20260430T00Z_MSC_RDPS_WindU_IsbL-0001_RLatLon0.09_PT084H.grib2 2026-04-30 03:04 244K
20260430T00Z_MSC_RDPS_WindU_IsbL-0005_RLatLon0.09_PT084H.grib2 2026-04-30 03:04 282K
20260430T00Z_MSC_RDPS_WindU_IsbL-0010_RLatLon0.09_PT084H.grib2 2026-04-30 03:04 296K
20260430T00Z_MSC_RDPS_WindU_IsbL-0020_RLatLon0.09_PT084H.grib2 2026-04-30 03:04 316K
20260430T00Z_MSC_RDPS_WindU_IsbL-0030_RLatLon0.09_PT084H.grib2 2026-04-30 03:04 354K
20260430T00Z_MSC_RDPS_WindU_IsbL-0050_RLatLon0.09_PT084H.grib2 2026-04-30 03:04 381K
20260430T00Z_MSC_RDPS_WindU_IsbL-0100_RLatLon0.09_PT084H.grib2 2026-04-30 03:04 434K
20260430T00Z_MSC_RDPS_WindU_IsbL-0150_RLatLon0.09_PT084H.grib2 2026-04-30 03:04 399K
20260430T00Z_MSC_RDPS_WindU_IsbL-0175_RLatLon0.09_PT084H.grib2 2026-04-30 03:04 422K
20260430T00Z_MSC_RDPS_WindU_IsbL-0200_RLatLon0.09_PT084H.grib2 2026-04-30 03:04 340K
20260430T00Z_MSC_RDPS_WindU_IsbL-0225_RLatLon0.09_PT084H.grib2 2026-04-30 03:04 343K
20260430T00Z_MSC_RDPS_WindU_IsbL-0250_RLatLon0.09_PT084H.grib2 2026-04-30 03:04 345K
20260430T00Z_MSC_RDPS_WindU_IsbL-0275_RLatLon0.09_PT084H.grib2 2026-04-30 03:04 360K
20260430T00Z_MSC_RDPS_WindU_IsbL-0300_RLatLon0.09_PT084H.grib2 2026-04-30 03:04 356K
20260430T00Z_MSC_RDPS_WindU_IsbL-0350_RLatLon0.09_PT084H.grib2 2026-04-30 03:04 364K
20260430T00Z_MSC_RDPS_WindU_IsbL-0400_RLatLon0.09_PT084H.grib2 2026-04-30 03:04 472K
20260430T00Z_MSC_RDPS_WindU_IsbL-0450_RLatLon0.09_PT084H.grib2 2026-04-30 03:04 471K
20260430T00Z_MSC_RDPS_WindU_IsbL-0500_RLatLon0.09_PT084H.grib2 2026-04-30 03:04 471K
20260430T00Z_MSC_RDPS_WindU_IsbL-0550_RLatLon0.09_PT084H.grib2 2026-04-30 03:04 472K
20260430T00Z_MSC_RDPS_WindU_IsbL-0600_RLatLon0.09_PT084H.grib2 2026-04-30 03:04 478K
20260430T00Z_MSC_RDPS_WindU_IsbL-0650_RLatLon0.09_PT084H.grib2 2026-04-30 03:04 494K
20260430T00Z_MSC_RDPS_WindU_IsbL-0700_RLatLon0.09_PT084H.grib2 2026-04-30 03:04 499K
20260430T00Z_MSC_RDPS_WindU_IsbL-0750_RLatLon0.09_PT084H.grib2 2026-04-30 03:04 528K
20260430T00Z_MSC_RDPS_WindU_IsbL-0800_RLatLon0.09_PT084H.grib2 2026-04-30 03:04 573K
20260430T00Z_MSC_RDPS_WindU_IsbL-0850_RLatLon0.09_PT084H.grib2 2026-04-30 03:04 637K
20260430T00Z_MSC_RDPS_WindU_IsbL-0875_RLatLon0.09_PT084H.grib2 2026-04-30 03:04 657K
20260430T00Z_MSC_RDPS_WindU_IsbL-0900_RLatLon0.09_PT084H.grib2 2026-04-30 03:04 659K
20260430T00Z_MSC_RDPS_WindU_IsbL-0925_RLatLon0.09_PT084H.grib2 2026-04-30 03:04 667K
20260430T00Z_MSC_RDPS_WindU_IsbL-0950_RLatLon0.09_PT084H.grib2 2026-04-30 03:04 665K
20260430T00Z_MSC_RDPS_WindU_IsbL-0970_RLatLon0.09_PT084H.grib2 2026-04-30 03:04 665K
20260430T00Z_MSC_RDPS_WindU_IsbL-0985_RLatLon0.09_PT084H.grib2 2026-04-30 03:04 661K
20260430T00Z_MSC_RDPS_WindU_IsbL-1000_RLatLon0.09_PT084H.grib2 2026-04-30 03:04 657K
20260430T00Z_MSC_RDPS_WindU_IsbL-1015_RLatLon0.09_PT084H.grib2 2026-04-30 03:04 788K
20260430T00Z_MSC_RDPS_WindV_AGL-10m_RLatLon0.09_PT084H.grib2 2026-04-30 03:04 436K
20260430T00Z_MSC_RDPS_WindV_AGL-120m_RLatLon0.09_PT084H.grib2 2026-04-30 03:04 544K
20260430T00Z_MSC_RDPS_WindV_AGL-40m_RLatLon0.09_PT084H.grib2 2026-04-30 03:04 546K
20260430T00Z_MSC_RDPS_WindV_AGL-80m_RLatLon0.09_PT084H.grib2 2026-04-30 03:04 545K
20260430T00Z_MSC_RDPS_WindV_IsbL-0001_RLatLon0.09_PT084H.grib2 2026-04-30 03:04 248K
20260430T00Z_MSC_RDPS_WindV_IsbL-0005_RLatLon0.09_PT084H.grib2 2026-04-30 03:04 286K
20260430T00Z_MSC_RDPS_WindV_IsbL-0010_RLatLon0.09_PT084H.grib2 2026-04-30 03:04 390K
20260430T00Z_MSC_RDPS_WindV_IsbL-0020_RLatLon0.09_PT084H.grib2 2026-04-30 03:04 320K
20260430T00Z_MSC_RDPS_WindV_IsbL-0030_RLatLon0.09_PT084H.grib2 2026-04-30 03:04 317K
20260430T00Z_MSC_RDPS_WindV_IsbL-0050_RLatLon0.09_PT084H.grib2 2026-04-30 03:04 345K
20260430T00Z_MSC_RDPS_WindV_IsbL-0100_RLatLon0.09_PT084H.grib2 2026-04-30 03:04 431K
20260430T00Z_MSC_RDPS_WindV_IsbL-0150_RLatLon0.09_PT084H.grib2 2026-04-30 03:04 401K
20260430T00Z_MSC_RDPS_WindV_IsbL-0175_RLatLon0.09_PT084H.grib2 2026-04-30 03:04 423K
20260430T00Z_MSC_RDPS_WindV_IsbL-0200_RLatLon0.09_PT084H.grib2 2026-04-30 03:04 340K
20260430T00Z_MSC_RDPS_WindV_IsbL-0225_RLatLon0.09_PT084H.grib2 2026-04-30 03:04 368K
20260430T00Z_MSC_RDPS_WindV_IsbL-0250_RLatLon0.09_PT084H.grib2 2026-04-30 03:04 370K
20260430T00Z_MSC_RDPS_WindV_IsbL-0275_RLatLon0.09_PT084H.grib2 2026-04-30 03:04 384K
20260430T00Z_MSC_RDPS_WindV_IsbL-0300_RLatLon0.09_PT084H.grib2 2026-04-30 03:04 381K
20260430T00Z_MSC_RDPS_WindV_IsbL-0350_RLatLon0.09_PT084H.grib2 2026-04-30 03:04 362K
20260430T00Z_MSC_RDPS_WindV_IsbL-0400_RLatLon0.09_PT084H.grib2 2026-04-30 03:04 365K
20260430T00Z_MSC_RDPS_WindV_IsbL-0450_RLatLon0.09_PT084H.grib2 2026-04-30 03:04 366K
20260430T00Z_MSC_RDPS_WindV_IsbL-0500_RLatLon0.09_PT084H.grib2 2026-04-30 03:04 469K
20260430T00Z_MSC_RDPS_WindV_IsbL-0550_RLatLon0.09_PT084H.grib2 2026-04-30 03:04 471K
20260430T00Z_MSC_RDPS_WindV_IsbL-0600_RLatLon0.09_PT084H.grib2 2026-04-30 03:04 477K
20260430T00Z_MSC_RDPS_WindV_IsbL-0650_RLatLon0.09_PT084H.grib2 2026-04-30 03:04 492K
20260430T00Z_MSC_RDPS_WindV_IsbL-0700_RLatLon0.09_PT084H.grib2 2026-04-30 03:04 513K
20260430T00Z_MSC_RDPS_WindV_IsbL-0750_RLatLon0.09_PT084H.grib2 2026-04-30 03:04 539K
20260430T00Z_MSC_RDPS_WindV_IsbL-0800_RLatLon0.09_PT084H.grib2 2026-04-30 03:04 583K
20260430T00Z_MSC_RDPS_WindV_IsbL-0850_RLatLon0.09_PT084H.grib2 2026-04-30 03:04 635K
20260430T00Z_MSC_RDPS_WindV_IsbL-0875_RLatLon0.09_PT084H.grib2 2026-04-30 03:04 656K
20260430T00Z_MSC_RDPS_WindV_IsbL-0900_RLatLon0.09_PT084H.grib2 2026-04-30 03:04 659K
20260430T00Z_MSC_RDPS_WindV_IsbL-0925_RLatLon0.09_PT084H.grib2 2026-04-30 03:04 666K
20260430T00Z_MSC_RDPS_WindV_IsbL-0950_RLatLon0.09_PT084H.grib2 2026-04-30 03:04 666K
20260430T00Z_MSC_RDPS_WindV_IsbL-0970_RLatLon0.09_PT084H.grib2 2026-04-30 03:04 805K
20260430T00Z_MSC_RDPS_WindV_IsbL-0985_RLatLon0.09_PT084H.grib2 2026-04-30 03:04 800K
20260430T00Z_MSC_RDPS_WindV_IsbL-1000_RLatLon0.09_PT084H.grib2 2026-04-30 03:04 795K
20260430T00Z_MSC_RDPS_WindV_IsbL-1015_RLatLon0.09_PT084H.grib2 2026-04-30 03:04 833K